Location: ?????
(31.8092°N, 35.2590°E)
Time: 10:22:27
(UTC+00:00)

Tiangong - Visible Passes

Search period start: 26 September 2021 00:00
Search period end: 06 October 2021 00:00
Orbit: 382 x 385 km, 41.5° (Epoch: 26 September)

Date Brightness Start Highest point End Pass type
(mag) Time Alt. Az. Time Alt. Az. Time Alt. Az.
26 Sep 1.3 02:27:43 30° W 02:29:01 55° NNW 02:32:08 10° NE visible
27 Sep 3.5 01:30:54 23° ENE 01:30:54 23° ENE 01:32:15 10° ENE visible
27 Sep 2.8 03:03:36 10° WNW 03:06:08 22° NNW 03:08:41 10° NE visible
28 Sep 2.2 02:06:12 31° NNW 02:06:12 31° NNW 02:08:56 10° NE visible
29 Sep 3.2 02:41:26 11° NW 02:43:18 17° N 02:45:27 10° NNE visible
30 Sep 3.6 01:44:24 17° NNE 01:44:24 17° NNE 01:45:41 10° NE visible
01 Oct 3.4 02:19:33 13° NNW 02:20:28 15° N 02:22:20 10° NNE visible
02 Oct 3.5 02:55:53 10° NNW 02:57:52 15° N 02:59:50 10° NE visible
03 Oct 3.6 01:57:38 14° N 01:57:38 14° N 01:59:24 10° NE visible
04 Oct 3.4 02:32:48 11° NNW 02:34:58 18° NNE 02:37:16 10° ENE visible
05 Oct 4.0 01:35:48 13° NNE 01:35:48 13° NNE 01:36:42 10° NE visible
05 Oct 2.2 03:09:06 10° NW 03:12:06 38° NNE 03:15:05 10° E visible
